Theta_e
357 356 355 356 356 355 355 354 353 352 352 353 352 351 351 353 354 354 353 353 350 348 347 345 346 346 347 348 347 347 349 347 344 345 346 347 347 346 343 340 337 336 336 336 336 336 336 336 336 336 336 336 335 335 334 332 330 328 326 325 323 323 324 324 325 325 326 327 327 327 327 328 329 329
356 355 355 354 355 355 355 355 354 354 356 357 356 355 354 354 355 355 355 356 352 348 346 346 347 350 350 348 346 345 347 347 346 346 347 347 347 347 346 344 340 339 337 336 336 336 336 336 335 336 336 336 336 336 336 335 335 333 331 330 328 326 325 325 325 325 326 327 327 326 327 328 329 330
356 356 356 355 355 355 355 354 355 355 356 358 357 357 357 357 357 357 357 357 355 351 347 346 348 351 352 350 348 347 347 349 349 349 348 349 348 346 345 342 339 338 337 337 338 337 336 336 336 336 335 335 335 336 336 336 336 336 335 334 333 331 329 327 326 326 326 326 327 327 327 329 330 332
354 356 357 357 357 356 356 355 355 355 355 357 357 358 358 357 357 357 357 359 358 355 352 350 349 349 349 349 349 349 349 350 351 350 351 351 349 348 348 346 343 340 339 338 338 338 337 337 337 337 336 336 335 335 336 336 336 336 336 336 335 334 333 331 329 328 328 327 327 328 329 330 332 333
355 356 358 358 358 357 357 357 355 354 355 356 357 358 358 358 358 358 358 358 359 358 356 355 354 352 351 351 350 351 352 352 353 353 353 353 353 352 352 351 350 347 345 343 341 340 339 339 339 338 338 337 337 337 336 336 336 336 336 336 336 336 335 334 333 332 330 329 329 329 330 331 332 333
358 358 358 359 359 358 358 358 357 355 354 355 356 358 358 359 358 358 359 359 359 359 358 357 357 355 355 355 354 355 355 355 355 356 355 355 355 355 355 355 354 353 350 349 347 345 344 343 342 341 341 340 339 338 337 337 337 337 337 336 336 336 336 336 335 334 334 333 332 332 331 332 332 333
360 359 359 359 359 357 357 358 358 356 355 354 355 355 356 357 358 358 359 359 360 360 360 358 356 355 355 356 355 356 356 356 357 358 358 357 357 356 356 355 356 355 353 352 351 350 348 348 346 346 345 344 343 341 340 339 339 338 338 337 337 337 337 336 336 336 335 334 334 334 333 333 332 333
360 360 359 359 357 357 356 358 358 358 357 356 356 355 356 356 358 358 359 359 360 361 361 360 359 359 358 358 358 357 358 358 358 359 360 360 360 359 358 357 357 356 355 354 354 353 352 351 350 349 348 347 346 345 344 343 341 340 340 339 339 338 337 337 336 336 335 335 335 335 334 334 333 332
360 360 359 359 358 357 357 358 359 358 358 358 358 358 358 358 359 359 360 360 361 361 362 362 361 361 361 361 361 361 361 361 360 360 360 360 360 359 359 359 358 358 357 356 356 355 354 353 352 352 351 350 350 350 348 347 345 344 342 341 340 340 339 338 337 336 336 335 336 335 335 335 334 333
360 360 359 359 359 358 357 358 358 358 359 360 359 360 361 361 361 361 362 362 362 361 361 361 361 361 361 361 361 361 360 361 360 360 359 358 359 359 359 359 358 357 357 357 357 356 355 355 354 354 353 354 353 353 353 352 350 348 347 344 343 341 341 340 339 338 337 336 336 335 336 335 335 335
359 359 360 359 358 358 358 358 358 358 359 360 360 362 363 363 363 363 362 362 361 361 360 361 360 361 360 360 360 360 359 358 358 357 357 358 359 359 360 361 360 359 358 359 358 358 358 357 356 355 355 355 354 353 353 353 352 352 351 349 347 345 343 342 340 339 338 337 337 336 336 336 335 335
357 356 356 357 357 358 358 359 360 360 359 360 361 362 362 363 364 363 362 362 361 361 361 361 360 361 360 360 360 359 357 357 357 357 358 359 360 360 360 362 362 361 362 361 360 359 359 359 358 358 357 357 356 355 355 353 353 353 352 352 351 350 348 346 343 341 339 337 337 336 335 336 335 335
356 356 353 353 353 355 357 359 360 360 359 360 361 361 363 364 364 364 363 362 362 362 361 361 361 360 361 360 359 358 358 357 357 356 358 360 360 362 362 363 363 363 362 362 361 361 361 361 360 360 359 359 359 358 357 357 355 354 353 353 353 352 351 350 348 345 342 339 338 337 336 335 335 335
356 355 354 352 351 352 354 356 358 359 359 359 358 357 357 359 361 364 364 363 362 362 361 361 360 360 360 359 359 358 357 357 357 357 359 361 362 362 364 364 364 363 362 362 363 363 362 361 361 361 360 359 360 359 358 358 357 356 354 354 354 353 352 351 350 348 347 344 341 338 336 335 334 334
356 354 354 354 353 353 354 354 355 355 355 356 354 351 349 349 352 356 359 361 361 361 361 361 360 360 359 359 359 359 358 358 359 360 361 362 364 364 364 365 364 364 363 363 363 363 362 362 362 362 362 361 359 359 358 358 357 356 355 355 354 353 352 352 351 350 349 348 345 343 339 336 335 334
358 356 354 353 353 354 355 357 357 357 356 355 354 352 351 349 348 350 352 355 357 359 360 361 360 361 361 361 360 360 360 361 361 362 363 363 364 365 364 364 365 364 363 363 363 363 362 362 362 362 361 359 358 357 356 356 356 355 355 354 354 353 352 352 351 350 349 348 347 345 343 339 336 334
359 358 357 354 352 352 354 356 359 361 363 363 360 358 358 356 354 354 353 353 353 355 357 358 360 360 360 361 361 361 361 363 362 363 363 363 364 364 364 364 364 363 363 362 362 362 361 361 361 360 359 359 357 356 356 356 355 353 353 353 354 353 353 352 351 350 350 349 347 346 345 342 339 336
360 360 360 358 357 355 356 357 360 362 363 364 364 363 363 361 360 359 359 358 356 356 356 357 358 359 359 360 361 361 361 362 362 363 363 363 364 363 363 362 362 361 361 362 362 361 361 360 359 357 356 356 355 354 354 353 353 352 351 352 353 353 353 352 352 351 350 349 347 346 345 343 341 338
362 362 362 362 361 361 361 360 361 363 364 365 367 367 366 366 365 364 364 363 362 359 359 359 358 358 360 361 362 361 361 362 363 362 362 362 361 361 361 361 361 359 359 360 360 359 358 357 356 354 353 352 352 352 351 351 351 351 350 351 351 352 352 352 352 351 350 348 347 346 345 343 342 340
363 364 364 365 364 364 365 364 362 362 363 365 367 367 366 365 364 364 363 362 361 361 359 359 359 359 360 360 360 360 360 360 361 360 360 360 360 361 361 360 359 357 356 355 355 355 355 354 353 352 351 350 350 350 350 350 350 350 350 350 351 351 351 351 351 350 350 349 348 347 346 344 342 341
362 363 363 364 365 365 366 365 364 363 362 363 364 364 364 364 363 362 361 361 360 360 358 359 359 358 359 359 359 360 360 360 360 359 359 359 360 360 360 358 356 354 354 353 352 353 352 351 352 350 349 349 349 348 349 349 349 349 350 350 350 350 350 350 349 350 349 349 348 347 345 344 342 340
363 363 361 362 364 365 366 365 364 364 363 363 364 364 363 363 362 361 361 360 359 359 359 359 360 360 360 359 360 361 361 361 361 360 359 359 360 359 357 354 352 352 352 351 350 351 351 350 350 349 348 347 347 347 347 347 347 349 349 350 350 350 348 348 348 348 348 348 348 347 346 344 342 339
363 364 363 361 361 363 364 365 365 365 364 364 364 363 362 362 362 361 360 360 360 361 363 363 363 363 363 363 363 363 362 361 361 360 360 360 360 357 354 352 352 352 351 349 348 349 350 349 347 346 346 346 346 345 345 346 347 347 347 348 348 348 348 348 348 347 347 347 346 346 346 343 340 338
364 364 365 364 362 361 360 361 362 362 362 363 363 363 361 361 361 361 360 361 363 363 363 364 363 364 364 364 363 362 362 361 361 360 359 359 358 356 353 351 350 348 347 346 344 346 348 347 345 345 346 345 345 344 344 344 345 344 345 346 346 347 348 347 347 347 346 346 346 346 346 343 339 337
363 364 365 366 365 363 362 361 360 359 358 359 360 360 360 360 360 359 360 361 361 360 362 362 362 363 364 363 363 362 361 358 355 354 356 355 353 350 347 346 346 345 344 343 343 345 346 344 343 344 344 343 343 343 342 342 342 342 343 344 343 343 345 346 347 346 346 345 344 344 345 344 341 338
363 363 364 365 365 366 365 363 361 359 358 357 357 356 356 356 356 355 356 356 357 359 360 361 362 363 362 363 363 361 357 353 351 350 349 346 343 343 343 344 345 345 344 343 343 343 343 343 342 342 342 342 342 341 341 341 340 341 341 340 341 342 342 344 345 346 345 345 344 343 344 343 342 340
365 364 364 364 365 364 364 363 361 360 358 358 356 356 355 354 353 353 353 354 356 358 360 361 362 362 362 362 361 358 354 352 349 343 339 339 341 343 343 344 344 344 344 343 341 340 340 341 341 341 341 341 340 339 339 339 339 339 339 340 341 342 342 344 344 345 345 344 344 343 343 342 341 339
364 364 364 363 364 363 363 363 361 360 359 357 356 356 355 354 354 354 354 356 358 359 360 361 361 360 361 360 358 355 353 347 340 337 339 342 344 343 343 344 344 343 342 341 340 338 338 338 338 339 339 338 338 338 338 338 338 339 339 339 339 338 339 342 342 343 343 343 343 343 342 341 341 339
362 361 361 362 363 363 362 362 360 360 359 357 356 355 355 355 355 356 357 359 360 361 361 361 360 360 360 357 353 350 346 340 338 343 345 344 342 342 342 342 341 340 341 340 339 338 337 336 336 336 336 336 336 336 336 336 338 338 335 334 333 332 334 337 338 339 340 342 343 343 342 339 340 339
361 360 359 360 361 361 361 361 360 360 359 358 357 355 355 356 357 358 359 360 360 360 360 360 361 359 356 350 346 344 343 343 345 346 343 340 340 340 340 339 339 340 340 339 338 337 336 335 334 333 333 333 333 334 335 336 337 334 331 329 329 330 331 332 334 337 339 340 341 342 341 337 336 337
358 358 358 358 357 358 358 358 359 359 358 357 356 355 355 356 358 359 359 359 359 360 359 359 356 352 347 345 344 343 344 344 344 341 338 338 340 339 338 339 339 339 338 337 337 336 334 333 332 332 331 331 332 333 335 335 332 329 327 326 325 326 327 328 329 333 336 336 336 339 340 338 335 334
356 357 356 356 355 355 356 356 357 358 357 356 357 357 356 358 358 358 358 358 358 356 355 352 349 346 345 344 343 341 341 341 339 339 338 339 339 338 338 339 339 338 336 337 337 335 333 331 331 331 330 330 332 333 333 331 328 326 324 323 322 323 324 325 326 329 331 332 332 335 340 340 336 333
356 357 356 356 356 356 357 358 358 359 359 360 360 359 360 359 358 357 355 354 354 352 349 347 346 345 344 343 341 339 338 338 338 338 338 338 338 338 338 338 338 336 336 336 335 334 333 331 330 330 329 330 332 331 329 327 326 323 322 322 321 322 322 324 325 327 329 330 331 334 337 337 335 332
356 357 357 357 357 358 358 359 360 360 360 361 360 359 358 358 356 354 351 350 349 348 345 345 344 343 341 340 339 337 336 336 336 337 337 337 337 337 336 336 336 336 335 335 334 333 332 331 330 329 329 330 331 329 326 325 324 322 321 320 320 320 322 324 325 326 327 327 329 331 333 332 330 329
356 358 359 359 359 360 359 360 360 360 361 360 359 357 354 353 351 348 346 346 345 343 342 342 341 340 338 338 337 335 334 334 336 337 337 336 335 335 334 334 334 334 334 334 333 332 331 330 330 329 328 329 331 329 325 324 322 321 320 319 319 320 321 323 324 325 324 324 326 329 328 326 324 323
357 360 360 360 360 360 360 360 360 361 359 357 355 354 350 346 343 343 343 344 343 342 342 341 338 338 337 336 335 334 334 335 336 336 336 335 334 334 333 333 333 333 333 333 332 331 331 330 329 329 328 328 329 328 326 323 321 320 318 317 318 319 321 322 324 323 322 322 323 325 324 321 320 320
359 361 361 361 362 361 361 360 360 359 357 355 353 350 347 343 343 343 343 341 340 340 339 338 337 336 336 335 334 334 335 335 335 335 335 335 333 333 333 333 332 332 332 332 331 330 330 330 328 328 327 327 326 325 325 324 322 320 318 316 317 318 320 321 322 322 320 320 320 320 320 319 318 318
360 362 361 361 361 360 359 356 355 353 352 351 349 347 345 344 344 342 340 339 339 338 336 335 337 337 335 335 335 335 335 334 334 334 334 334 332 332 331 331 331 332 331 330 330 329 329 328 327 327 326 325 324 324 324 323 322 320 318 316 316 317 319 321 321 320 319 318 318 318 318 317 316 316
360 360 359 357 355 355 353 351 349 348 346 345 344 344 344 344 342 340 339 339 339 338 337 337 337 335 334 335 335 334 334 334 333 333 334 333 332 331 330 330 331 332 331 329 329 328 327 327 327 326 325 324 324 323 323 323 322 320 318 317 316 316 317 319 320 320 318 317 316 316 316 315 315 315
354 355 355 352 349 348 347 345 346 345 343 342 342 341 342 341 340 339 339 339 337 336 337 337 335 333 335 336 335 333 334 334 333 333 332 332 331 330 328 328 330 331 330 329 328 328 327 326 326 324 324 323 323 322 322 323 322 320 319 318 317 316 316 317 319 319 318 316 316 315 315 314 314 314
347 347 348 347 344 343 341 342 342 342 340 340 340 340 340 340 340 339 338 337 336 337 337 337 335 334 335 335 334 333 332 332 332 332 331 331 331 330 328 328 329 330 329 329 327 327 326 325 324 323 323 323 322 322 322 322 322 321 320 319 317 316 315 316 317 318 317 316 316 316 315 315 314 315
343 343 342 342 342 342 340 340 340 339 338 338 338 338 338 338 337 336 335 334 334 335 336 336 335 333 333 333 333 332 331 331 331 331 331 331 330 330 330 329 329 329 329 328 327 326 325 325 324 324 323 323 322 322 322 322 321 321 321 320 319 317 316 316 316 316 317 317 317 316 316 316 315 315
338 337 336 336 337 337 337 338 337 337 336 337 337 337 337 336 333 334 334 335 335 334 335 334 333 332 332 332 332 331 331 330 330 330 330 330 330 330 330 329 327 327 328 327 326 326 325 325 324 324 323 323 322 321 321 321 320 320 320 320 319 318 317 316 316 316 316 317 317 317 317 316 316 316
332 332 332 331 332 331 332 332 333 333 333 334 334 334 335 335 334 335 335 336 335 334 334 334 332 332 331 331 331 331 331 331 330 329 328 329 329 329 329 328 327 327 327 327 326 326 326 325 325 324 323 323 322 322 321 321 319 319 319 319 319 318 317 317 317 316 315 315 315 316 316 316 316 316
328 328 328 328 327 327 327 327 328 329 329 330 331 331 332 333 334 334 333 334 333 333 332 332 332 332 332 331 331 331 330 329 329 328 327 328 328 328 327 328 327 327 327 327 326 326 326 325 325 324 324 323 322 322 321 321 320 320 319 319 318 317 317 317 316 316 315 314 314 315 315 314 314 314
Wind_Speed
8 8 8 8 8 7 7 7 6 5 5 5 5 5 6 5 4 4 3 4 6 6 7 6 8 9 9 10 10 10 11 12 13 15 16 17 18 20 22 23 23 23 23 24 25 26 27 27 27 27 27 28 28 28 29 29 29 30 30 30 30 31 31 30 30 29 29 27 25 23 21 20 19 18
9 9 8 8 8 8 8 8 7 7 6 7 7 6 6 6 6 6 5 5 7 7 8 7 5 9 9 9 10 11 12 13 15 15 15 16 17 19 21 23 24 24 24 24 25 26 28 29 30 30 31 31 32 33 32 32 33 33 33 33 33 33 33 32 32 31 30 29 28 25 23 22 20 19
10 10 9 9 9 9 8 8 8 7 7 8 8 7 8 8 8 8 7 6 7 7 7 8 7 5 7 8 10 12 13 14 16 17 17 18 19 20 23 24 25 25 26 26 26 27 28 30 31 32 33 34 35 36 36 36 36 36 36 36 35 35 35 34 34 33 32 31 30 28 25 23 21 20
10 11 11 11 10 10 9 9 9 8 8 9 9 9 9 9 9 10 9 8 9 10 10 11 12 11 11 12 13 14 15 15 17 19 20 21 21 22 23 25 25 26 27 28 28 29 30 31 32 32 34 35 37 37 38 39 39 39 39 39 39 38 37 37 36 35 35 33 31 30 27 25 23 22
11 11 11 12 11 11 11 10 10 10 10 10 10 10 10 11 11 11 11 11 12 13 12 13 14 14 14 15 15 15 16 16 17 18 20 21 21 22 22 23 25 26 27 27 28 29 30 32 32 33 34 36 37 38 39 40 41 41 42 42 42 41 40 40 39 38 37 35 33 32 29 27 26 24
12 12 12 12 12 12 12 12 12 11 11 11 11 11 11 12 12 12 13 13 13 14 13 13 14 14 14 16 16 15 17 17 17 18 19 19 20 21 22 22 23 25 27 28 29 30 30 31 32 33 34 36 37 39 40 41 41 42 44 44 45 44 44 43 42 41 39 37 35 33 31 30 28 26
14 13 13 13 13 13 13 13 13 12 12 12 12 12 11 12 13 13 13 14 14 15 14 14 14 15 14 15 15 15 16 17 18 19 19 19 19 20 21 22 23 24 26 28 29 31 32 32 33 34 34 35 36 38 39 40 41 42 44 45 46 46 46 46 46 44 42 39 37 35 33 32 30 27
15 15 14 14 14 13 13 13 13 12 12 12 12 13 13 13 14 13 14 15 15 15 16 15 14 14 15 15 15 15 16 16 17 18 19 19 20 20 20 21 23 23 25 27 29 31 31 32 32 32 32 33 35 36 37 39 40 41 42 44 45 46 47 47 47 47 45 42 40 38 36 35 32 29
16 16 16 15 14 14 14 14 14 13 13 13 13 13 13 13 13 14 14 14 15 16 17 17 15 15 15 16 15 15 15 16 16 17 18 19 20 21 20 20 21 22 24 25 26 28 28 27 27 27 28 30 32 33 34 36 38 39 41 42 44 44 45 46 47 47 47 45 43 41 39 37 35 32
17 17 17 16 15 15 15 15 14 14 14 14 14 14 13 13 13 13 14 14 15 17 18 18 17 16 15 15 16 15 15 16 16 17 18 18 19 20 20 19 19 21 22 23 24 26 26 26 26 27 29 32 32 31 31 32 34 36 38 39 41 42 43 44 45 46 46 46 45 44 42 39 37 34
18 18 17 17 17 17 17 16 16 15 14 14 14 14 13 13 13 14 14 14 15 16 17 18 17 17 15 15 15 15 15 17 17 18 18 18 18 19 19 19 20 22 22 22 24 25 26 27 29 30 32 33 34 33 32 32 32 33 35 36 37 38 40 42 43 44 45 45 45 45 44 42 40 37
18 18 18 18 18 18 18 18 17 15 14 13 13 13 13 13 13 14 14 14 14 15 16 16 16 16 16 15 15 16 16 17 17 17 18 18 19 19 20 20 21 22 22 22 24 24 24 25 27 28 29 32 33 33 33 34 34 33 33 33 32 33 35 38 39 41 43 44 44 45 45 44 42 39
19 19 19 18 18 18 18 19 19 18 16 14 13 12 11 11 12 13 14 14 14 14 15 16 16 16 16 15 16 16 15 16 17 17 18 19 20 21 22 21 21 22 22 23 23 23 22 24 26 26 27 29 31 32 34 35 36 35 33 32 30 29 30 32 34 36 38 40 42 43 44 45 44 42
19 19 19 19 18 18 19 19 21 21 21 20 18 16 14 13 13 13 13 14 14 15 15 16 15 15 15 14 14 15 16 18 19 19 19 20 21 22 22 21 21 21 20 20 22 23 21 23 26 27 26 28 29 30 32 33 35 35 32 28 26 27 28 29 30 31 33 35 37 39 42 44 45 44
19 19 19 19 18 19 20 21 23 25 26 26 25 25 23 21 19 18 17 15 15 15 16 16 16 15 16 15 14 16 17 18 19 20 20 20 21 20 19 20 20 19 18 19 23 25 23 23 26 27 26 27 28 28 28 30 32 33 31 28 26 27 29 29 29 30 31 31 32 34 37 40 43 44
19 20 20 19 18 18 19 20 21 23 25 25 25 25 23 22 22 22 22 21 19 17 16 16 16 16 16 16 15 16 17 18 20 21 21 20 20 21 20 20 21 21 22 24 25 27 25 21 24 26 25 25 27 28 28 30 31 32 33 32 31 30 29 29 29 29 30 31 31 31 32 35 39 42
20 19 19 19 18 18 18 19 18 19 19 19 20 20 20 20 20 20 21 22 23 22 20 19 18 17 17 17 17 16 17 19 20 21 21 21 21 22 22 22 23 25 25 25 26 28 25 21 22 25 25 25 26 28 28 29 30 32 33 32 31 30 29 29 30 30 29 29 30 31 32 32 34 38
19 19 19 18 18 17 17 17 17 17 17 16 16 17 17 19 19 18 17 17 19 21 22 22 21 20 20 19 19 18 17 18 20 21 22 23 23 24 24 25 26 27 26 23 23 25 24 21 22 24 23 23 25 26 27 28 29 31 33 33 31 30 30 30 30 31 30 30 30 31 31 31 31 33
18 18 18 18 18 17 17 18 17 16 15 15 14 15 15 16 15 15 15 16 16 18 20 21 22 21 21 20 18 17 17 18 20 21 23 24 25 26 26 25 24 23 21 18 18 20 22 21 23 24 22 23 25 26 27 28 29 29 31 33 33 33 33 32 30 31 32 31 31 31 31 31 31 31
19 19 19 18 18 18 18 18 19 19 17 15 14 14 14 14 14 14 15 16 17 19 20 20 21 21 20 19 18 18 20 22 22 22 23 24 24 24 23 22 20 17 16 15 16 19 22 21 22 25 25 24 25 26 27 27 27 27 28 30 31 31 32 31 30 31 32 32 32 32 32 31 31 31
21 21 21 20 19 19 19 19 20 21 20 18 16 15 15 15 15 15 14 15 17 19 20 21 23 24 22 21 21 21 23 23 22 22 23 23 22 21 20 20 19 17 16 16 17 18 20 20 21 25 26 26 26 25 24 24 24 23 24 25 27 27 28 29 30 30 31 32 32 32 32 31 30 30
21 22 24 24 22 20 18 18 19 20 21 19 17 16 15 15 15 14 13 14 16 17 17 16 18 20 21 20 20 20 21 20 19 21 24 23 21 20 19 19 20 20 17 16 15 17 19 20 21 23 25 26 25 23 21 22 23 22 23 24 26 28 29 29 29 29 30 32 33 33 32 31 28 28
20 21 23 25 27 25 21 19 18 18 19 18 16 16 15 16 15 14 13 13 13 12 12 11 11 13 15 16 17 18 18 18 18 19 21 21 18 17 18 19 19 16 14 13 15 17 19 20 21 22 20 18 20 22 22 22 22 21 23 24 25 28 29 29 28 27 26 28 31 33 33 30 28 28
19 20 21 22 26 28 27 25 23 22 22 21 18 16 16 16 15 13 12 12 11 10 10 12 13 13 13 14 16 18 17 17 17 16 15 15 14 14 17 18 17 15 14 16 19 20 19 20 21 20 17 14 17 22 24 23 22 21 21 21 21 23 26 26 26 25 24 24 26 30 33 32 29 29
18 18 19 19 21 23 24 24 24 25 26 26 24 21 19 19 17 16 15 14 12 11 11 13 14 14 14 14 15 15 14 14 14 12 10 10 11 13 15 16 16 18 17 19 21 20 18 18 19 19 18 18 20 23 24 23 22 21 20 19 20 22 23 23 23 23 24 24 24 24 28 31 31 31
18 18 17 17 18 19 19 18 18 19 21 24 25 24 22 21 20 20 19 16 14 13 12 13 13 13 13 12 13 13 14 13 10 7 7 10 12 13 14 13 14 17 18 20 21 19 15 17 19 19 19 20 21 22 23 21 21 20 20 21 21 22 22 22 22 22 22 23 24 24 23 24 27 29
17 17 17 17 17 18 17 15 15 15 16 18 19 18 17 17 17 17 16 14 12 11 12 12 12 12 11 12 12 12 11 9 8 8 10 11 12 12 13 12 13 16 18 19 19 17 16 17 17 18 18 19 20 19 19 19 20 21 22 23 23 23 23 22 23 23 22 21 23 25 23 20 21 24
17 17 18 18 18 17 16 15 15 14 14 15 14 12 12 13 13 13 13 11 10 11 12 12 11 11 12 12 11 8 6 7 10 11 10 10 10 12 13 13 13 15 16 15 14 14 15 15 16 16 17 18 19 17 16 19 21 22 24 24 24 25 24 22 23 24 23 22 21 22 23 22 21 22
18 17 15 15 15 15 15 14 14 14 14 13 12 11 11 11 11 10 11 10 11 12 11 11 11 13 13 9 5 4 7 9 9 8 7 8 10 11 12 12 13 13 12 11 11 11 12 13 14 15 16 17 18 17 17 20 20 21 24 24 24 25 24 23 25 24 23 23 20 19 21 22 21 22
20 17 14 12 11 11 13 12 11 12 12 10 10 9 10 10 11 11 11 11 12 12 11 12 13 12 9 4 2 4 7 6 5 5 7 9 9 9 9 11 12 10 8 8 8 8 10 12 12 14 15 15 16 16 18 18 18 19 22 22 23 23 23 22 24 22 21 23 21 18 18 16 17 20
24 19 17 16 13 12 12 11 10 11 12 11 10 10 10 11 12 13 13 12 11 11 10 10 9 6 4 2 3 4 4 2 3 5 7 8 8 8 9 11 11 9 8 8 7 8 11 13 12 12 14 15 15 16 16 16 16 18 21 22 22 22 23 24 23 21 21 24 24 20 18 17 17 19
27 21 18 18 16 13 12 12 12 13 14 14 12 12 11 11 11 12 13 13 12 11 9 7 5 4 3 4 3 2 2 2 3 5 5 7 8 8 9 9 9 9 9 9 7 8 12 14 13 13 14 14 14 14 13 14 17 20 22 23 22 22 23 23 22 22 24 26 27 24 18 19 21 21
26 22 19 18 16 14 14 14 14 15 16 16 14 13 12 11 10 9 11 12 11 9 7 6 5 4 4 3 2 2 2 2 3 4 5 6 7 8 8 8 8 8 10 10 9 10 12 13 15 16 16 13 10 10 13 14 16 20 23 23 22 22 22 22 22 24 25 25 26 25 16 13 16 18
22 22 22 19 17 17 17 17 17 17 16 14 12 11 11 11 10 9 9 10 10 8 7 6 5 4 3 2 2 2 2 3 3 4 4 5 6 7 8 8 7 8 9 9 10 11 11 12 15 16 15 10 4 5 14 17 16 19 22 22 21 21 22 22 23 24 24 24 25 22 12 7 9 12
22 21 23 21 19 19 19 19 19 17 13 11 11 10 10 11 10 9 8 10 9 8 8 7 5 3 3 2 2 2 2 3 4 4 4 5 6 6 7 7 7 8 9 9 9 10 11 12 13 14 14 11 5 3 13 19 20 21 23 23 23 23 22 23 24 23 23 25 24 17 8 3 4 6
21 20 22 21 20 21 21 19 18 15 12 11 12 12 12 12 12 10 10 11 9 7 7 6 4 4 3 2 2 2 3 3 3 3 4 4 5 6 6 6 6 7 8 8 9 10 11 12 13 13 13 11 7 5 10 16 21 23 24 24 25 24 23 23 24 23 22 23 21 15 9 5 5 4
18 19 21 19 18 19 17 14 12 11 11 12 13 13 13 13 12 11 12 12 9 6 6 6 4 4 4 3 3 3 3 3 3 3 4 4 4 6 6 6 5 7 8 8 8 9 10 11 12 12 10 9 7 7 10 14 19 24 25 25 25 24 23 23 23 21 21 20 17 13 9 5 5 4
16 17 15 13 12 13 12 10 8 7 8 9 10 11 10 9 9 9 10 10 8 6 6 6 4 3 3 2 2 3 3 3 3 4 4 3 3 5 6 6 6 7 7 7 7 9 10 11 11 12 11 9 6 7 10 13 16 20 25 27 27 25 23 22 21 20 19 16 13 11 9 7 6 5
13 12 10 10 10 11 11 11 10 9 8 9 9 8 7 7 8 7 7 7 6 6 5 5 3 2 2 2 2 3 3 3 4 4 4 3 3 3 6 7 7 7 8 8 7 8 11 12 12 12 12 12 10 9 12 12 12 15 20 24 27 27 23 20 19 17 15 13 11 11 11 10 10 10
9 9 11 12 12 12 12 13 13 12 11 10 10 9 8 8 7 7 7 6 6 5 4 4 4 2 1 2 2 4 4 4 4 4 4 4 4 3 5 7 7 7 7 7 7 8 10 12 12 11 11 13 13 12 12 12 12 14 15 17 21 25 24 19 16 14 12 10 9 10 10 11 12 13
10 11 12 14 14 13 13 13 13 12 11 9 8 8 8 7 7 7 7 7 5 4 4 4 3 1 2 2 2 4 5 5 5 5 5 5 5 4 5 7 7 6 6 6 8 10 9 8 9 11 10 11 13 13 11 11 12 13 13 11 14 20 23 20 16 12 11 10 8 8 9 10 12 12
12 11 11 12 13 13 13 12 12 11 10 8 8 8 8 7 5 6 8 7 4 3 3 4 3 1 3 3 4 5 6 7 7 6 6 7 6 5 6 7 6 7 7 7 8 10 8 4 6 10 11 12 13 13 11 11 11 12 12 11 11 13 17 19 16 12 11 10 9 8 7 7 8 9
13 12 11 11 11 11 11 10 10 10 9 7 6 7 7 6 6 7 9 7 4 2 4 4 2 2 4 6 6 6 7 8 9 8 8 8 8 7 7 7 7 8 10 10 10 10 10 7 5 8 11 12 12 12 12 12 12 12 12 12 11 9 10 14 15 13 11 10 8 6 4 4 4 6
15 16 15 13 13 13 12 13 13 11 8 7 6 5 5 6 6 4 3 2 2 1 3 4 3 4 5 6 7 8 9 9 9 9 9 9 9 9 9 10 10 9 11 11 10 10 12 11 8 8 10 10 9 12 12 9 8 11 12 11 11 10 9 9 11 12 13 13 11 7 3 2 4 7
13 13 13 12 12 12 11 12 13 12 10 8 6 4 4 4 3 1 3 5 4 2 2 4 5 6 7 8 10 9 8 7 8 9 10 11 12 11 11 12 12 11 12 12 10 9 12 13 10 10 12 10 8 11 12 8 6 8 10 10 10 9 8 7 7 8 12 14 13 10 7 6 7 10
Wind_Direction
243 243 238 237 248 253 254 258 260 260 264 270 271 266 268 273 281 294 294 293 293 286 287 267 209 205 223 231 240 245 243 247 248 249 253 254 254 259 265 270 273 273 271 268 267 266 266 266 264 264 264 263 263 263 262 262 261 260 259 258 258 257 256 256 256 255 255 256 257 259 262 265 269 272
241 244 242 239 242 245 246 248 248 246 244 250 257 257 260 256 257 273 284 285 289 284 286 284 221 199 218 235 242 242 241 246 246 244 247 251 253 257 263 269 273 274 274 271 267 264 263 264 263 263 263 262 262 261 260 261 261 260 260 259 258 257 256 256 256 256 255 256 256 258 260 263 265 267
236 239 241 241 243 246 249 251 250 246 238 239 248 250 252 254 251 260 269 275 281 280 278 288 284 242 229 242 252 251 250 253 254 253 253 255 259 261 263 266 269 271 271 270 267 264 262 261 261 261 261 261 261 260 259 259 260 260 259 259 258 258 257 256 255 256 255 255 256 257 258 259 261 263
232 234 237 238 240 243 247 251 252 248 242 239 243 246 247 249 248 249 255 261 269 276 277 282 285 277 267 265 264 261 261 261 261 262 262 264 267 265 262 264 267 269 270 269 267 264 261 260 259 259 259 260 261 261 260 259 259 259 259 259 259 259 258 257 256 256 255 255 256 257 256 255 257 258
233 231 234 237 238 240 242 246 249 249 245 239 239 243 245 248 249 245 249 258 267 272 273 274 276 276 275 274 269 267 267 265 263 263 265 268 269 266 262 262 264 267 269 270 270 268 266 263 261 260 259 260 261 262 261 261 261 261 261 260 260 259 259 258 257 256 255 254 254 256 255 254 254 254
234 232 234 237 237 239 241 243 246 249 250 246 243 242 242 247 250 247 247 255 265 271 272 273 274 274 272 272 270 269 268 268 267 265 265 266 266 265 264 263 264 266 268 271 273 274 273 272 270 267 265 265 265 265 265 265 264 264 264 263 262 260 259 259 257 256 255 254 253 253 253 253 252 252
231 232 233 236 237 238 240 242 245 248 252 255 255 253 250 250 251 251 250 252 260 269 274 275 277 278 276 274 275 275 273 273 273 270 269 271 270 269 269 269 271 272 273 275 276 277 278 278 278 277 275 274 273 271 270 269 267 266 265 265 263 262 261 259 258 257 255 254 253 252 251 251 251 250
231 232 232 234 236 236 239 241 243 246 248 251 255 255 254 253 254 254 254 253 257 264 272 274 275 278 279 278 279 280 279 278 277 274 274 275 276 276 276 278 280 282 282 280 278 278 279 280 280 280 280 280 279 277 274 272 270 267 266 265 264 263 262 261 259 258 255 254 253 252 252 251 250 249
231 232 232 234 234 234 236 239 241 243 245 247 250 252 253 252 253 254 254 257 259 263 270 275 276 277 278 278 278 279 281 281 281 279 278 279 281 282 282 283 286 289 290 289 287 286 285 284 282 281 281 283 282 281 279 275 272 270 267 265 264 263 263 263 261 259 256 254 252 252 251 250 249 248
230 231 233 234 234 234 236 238 240 241 243 246 248 250 252 253 255 256 256 258 262 266 270 275 277 277 276 277 281 282 284 285 286 288 286 284 284 284 283 283 286 290 293 293 295 295 294 291 287 283 283 284 282 281 281 280 278 275 273 270 268 267 265 265 264 261 258 255 252 251 250 249 248 246
229 231 232 234 234 235 237 239 241 241 240 244 247 248 251 253 256 258 260 262 264 266 270 273 275 277 276 278 282 285 287 285 283 285 288 288 287 286 282 283 288 291 291 291 293 293 292 291 289 288 289 288 284 279 278 278 278 279 280 279 277 274 272 270 268 265 262 258 254 251 249 248 247 245
230 232 233 235 235 235 236 238 240 240 240 242 246 247 248 250 253 257 261 265 266 268 272 274 276 279 280 281 283 284 284 282 282 286 291 292 292 290 288 287 288 289 289 290 293 294 294 291 291 293 294 293 291 286 282 279 276 275 279 282 283 282 280 277 274 270 266 262 258 254 250 248 246 244
231 234 236 239 239 238 238 237 238 239 238 237 241 244 246 249 254 258 261 264 267 268 271 274 276 277 278 279 283 285 286 288 293 296 294 292 293 296 297 293 290 289 290 291 292 295 296 294 292 292 291 292 292 291 289 288 284 279 276 278 284 287 287 284 280 276 271 267 262 257 253 249 246 243
231 234 238 241 242 243 242 241 242 244 242 241 242 243 245 250 254 259 262 262 263 266 268 271 274 276 277 280 286 290 293 295 296 297 296 297 300 302 301 297 295 293 291 293 294 295 296 295 292 290 289 290 291 289 289 291 291 288 282 277 280 287 289 289 287 283 278 273 267 262 256 251 247 243
230 234 238 241 243 243 243 243 245 248 250 251 252 254 256 257 256 256 259 261 264 268 270 272 275 277 280 284 289 292 294 296 298 300 302 302 301 301 299 298 300 300 300 303 302 297 296 294 291 289 289 290 291 289 289 291 293 295 292 285 283 285 285 286 288 287 284 279 273 267 261 254 248 244
229 232 237 241 242 242 241 242 244 249 253 255 257 259 261 262 259 255 254 256 259 264 269 274 275 277 283 288 290 291 294 298 300 300 298 297 296 296 296 297 299 303 309 312 305 298 296 293 288 287 289 290 290 290 290 292 293 295 294 291 287 285 283 282 284 287 288 285 278 273 267 258 251 246
228 230 234 238 241 242 242 241 240 244 252 258 261 262 262 263 264 261 257 255 254 255 260 266 269 272 277 282 285 287 293 298 298 295 294 296 297 297 299 301 303 306 309 307 300 295 294 294 290 289 290 290 290 290 290 290 291 293 294 294 292 289 285 283 283 283 285 287 283 277 272 265 256 248
227 229 231 234 237 239 240 239 238 238 242 250 258 261 262 263 266 266 263 258 253 250 250 254 260 265 267 270 275 281 284 285 285 288 294 299 301 300 302 303 304 303 301 294 290 290 295 300 297 295 296 297 295 294 293 293 293 294 295 296 295 294 291 288 285 283 281 283 284 280 275 270 262 253
229 229 231 233 235 236 235 236 236 235 237 241 246 251 255 257 259 260 258 258 258 255 252 254 260 266 266 263 268 276 279 278 281 289 296 299 300 301 301 301 299 298 298 293 288 291 298 305 302 299 303 304 300 298 297 296 296 295 293 292 292 293 292 289 286 284 283 281 281 281 278 273 267 258
229 231 231 233 234 235 235 236 236 235 235 238 244 248 253 257 258 259 258 258 260 260 259 260 263 266 264 260 263 273 281 282 284 289 293 295 297 298 299 300 299 302 307 303 295 294 298 304 305 303 305 305 301 299 298 296 296 297 294 292 291 292 293 291 287 285 285 283 281 281 279 275 270 263
229 231 231 232 233 235 236 237 237 238 237 238 244 251 256 259 261 263 264 263 262 260 260 263 265 266 266 265 267 273 279 282 285 286 286 290 295 298 299 302 305 310 312 309 304 301 302 307 307 305 306 305 302 300 301 302 304 303 300 297 298 299 299 298 293 287 283 282 282 281 279 277 272 264
229 232 233 233 233 233 236 237 238 240 238 236 240 247 254 258 259 261 263 266 269 269 268 267 266 266 266 266 270 274 277 283 287 283 280 284 291 295 298 302 307 309 308 310 314 311 307 309 311 310 309 307 304 306 311 313 313 312 309 308 307 306 304 303 300 293 285 280 280 281 281 277 269 259
228 232 235 236 235 233 233 234 235 238 237 233 234 242 250 254 254 257 260 264 273 279 276 269 265 266 267 270 277 282 282 285 286 279 277 280 285 288 294 298 302 304 307 320 331 326 317 317 318 317 315 309 307 312 316 316 316 314 312 311 309 307 308 308 305 300 290 281 277 278 281 277 264 251
228 231 233 237 240 239 237 234 234 237 238 236 235 239 246 250 252 256 261 268 278 287 279 273 274 278 280 279 280 283 286 288 286 278 269 269 270 277 290 297 299 301 305 318 329 331 325 320 317 315 314 308 305 310 313 315 317 315 313 313 312 311 312 311 308 304 296 287 279 275 277 275 263 249
229 231 232 235 239 242 242 239 239 241 243 243 243 243 244 247 250 255 261 269 280 284 278 274 276 277 281 282 282 285 293 296 294 284 268 269 278 290 302 309 308 304 302 308 321 329 325 316 314 314 311 305 302 307 311 313 314 315 316 318 317 314 313 310 307 305 300 295 289 279 274 272 265 254
229 231 233 235 237 240 240 237 237 239 242 244 245 245 245 247 248 251 256 263 269 271 270 270 272 276 282 285 285 288 294 297 301 306 300 300 304 304 306 309 303 299 300 306 316 322 315 307 310 312 310 308 308 310 311 311 315 318 319 318 314 312 312 309 308 307 300 291 288 284 278 273 268 262
228 232 234 235 237 237 234 231 235 238 237 237 240 240 241 243 244 246 251 255 255 256 260 263 269 278 280 273 273 285 294 294 299 309 306 303 303 300 299 298 293 293 297 303 311 314 307 306 312 314 313 313 311 310 311 314 317 318 317 316 315 316 315 311 309 308 302 292 288 284 277 269 267 264
229 231 233 234 236 235 231 230 234 235 234 234 236 235 232 234 238 240 243 243 239 241 248 254 262 268 264 260 268 285 293 292 297 303 302 299 298 298 297 297 294 293 295 299 307 314 314 315 318 318 316 314 311 311 314 316 316 318 324 328 329 327 325 321 319 316 310 303 292 279 271 265 260 257
232 230 227 227 228 225 222 223 228 232 234 236 237 236 233 231 230 230 229 229 230 234 241 246 248 252 255 261 277 277 274 288 300 305 303 300 299 299 298 299 299 296 297 302 311 319 324 325 324 323 321 317 314 314 316 317 320 329 338 340 335 331 331 331 329 327 322 315 298 270 264 267 261 255
232 233 230 226 221 215 212 214 220 227 230 232 234 236 232 225 222 222 222 223 229 234 240 243 245 249 255 270 294 271 274 291 302 298 302 304 303 304 306 307 307 305 309 317 323 328 332 331 331 330 326 321 318 317 320 324 331 339 345 343 336 332 334 334 330 327 327 326 311 278 262 263 260 257
229 235 239 239 236 231 224 217 216 224 231 236 238 237 230 223 223 225 223 221 226 232 238 244 248 252 257 256 267 269 265 270 285 298 309 310 309 313 313 309 310 318 327 331 332 334 333 334 335 333 328 324 319 320 327 337 342 342 342 342 338 332 331 332 330 327 327 329 323 303 275 255 251 256
224 229 238 242 239 236 234 230 227 228 228 229 229 227 220 213 215 222 223 225 231 233 235 240 242 239 238 238 248 265 260 275 300 304 306 307 310 316 316 312 316 328 332 332 335 334 334 338 339 334 330 325 322 329 342 348 347 344 340 338 337 333 332 333 333 331 329 328 327 320 291 252 243 247
218 220 227 234 232 227 227 230 228 225 222 220 219 218 213 207 206 217 224 227 228 224 218 222 222 220 228 234 239 266 276 287 292 288 294 308 312 312 313 314 323 332 331 330 336 337 336 340 339 335 334 329 327 350 7 0 350 347 342 338 338 336 336 337 335 333 333 330 327 324 307 260 241 242
209 212 215 220 221 218 219 221 223 224 224 216 206 206 214 215 211 212 211 206 199 192 193 206 212 209 216 230 239 268 290 291 284 282 288 300 303 308 317 321 328 334 329 327 334 339 339 341 339 336 338 335 318 18 24 14 2 354 346 342 343 340 338 341 341 339 341 340 334 327 312 267 251 250
203 208 210 214 216 215 216 218 220 220 214 195 187 201 219 220 214 208 199 187 178 176 185 193 195 193 203 222 235 262 287 289 289 288 288 297 307 314 321 326 330 333 329 326 335 342 342 344 344 339 342 344 333 19 25 17 9 3 355 348 346 345 342 344 347 347 348 348 345 340 335 328 314 288
203 208 209 213 216 216 216 217 215 210 197 185 191 204 207 200 198 198 191 179 170 171 179 179 177 187 198 212 237 257 275 282 288 294 293 303 315 317 318 324 328 329 327 327 337 346 347 349 351 346 345 349 345 355 15 11 6 6 2 352 347 348 347 346 350 355 355 353 354 356 0 17 24 7
206 212 212 215 217 215 211 206 204 206 203 197 199 205 199 185 179 181 181 178 174 173 175 174 176 188 197 210 237 251 265 274 281 293 292 296 311 319 323 326 323 324 328 332 342 354 357 356 358 355 352 352 350 349 355 356 356 359 360 356 353 352 349 348 353 359 359 358 2 8 13 36 61 67
215 218 211 205 204 195 184 177 183 196 201 194 194 199 192 168 153 159 167 170 169 170 176 179 178 185 199 221 253 266 276 283 286 287 283 285 309 325 325 323 320 322 329 335 348 4 9 6 3 2 0 0 358 346 342 349 357 356 354 356 360 358 354 354 359 2 3 4 12 24 33 55 78 96
219 209 183 168 173 172 167 169 170 167 167 167 167 171 165 144 139 152 161 162 163 170 180 176 156 162 210 236 263 273 274 278 286 286 283 284 301 326 331 327 320 316 325 339 356 11 15 11 4 0 0 1 359 346 339 349 10 6 353 354 3 6 3 1 3 6 9 12 24 44 62 80 95 112
198 187 171 164 163 159 157 159 160 161 166 162 152 153 154 144 142 152 157 156 160 169 175 158 134 137 243 255 289 294 285 272 269 274 282 285 281 300 325 320 307 305 324 344 355 359 6 6 358 353 356 354 348 343 339 345 5 10 359 355 4 10 11 9 8 14 20 23 38 60 76 89 101 110
162 171 172 166 159 153 149 147 148 153 159 152 140 137 138 134 135 146 151 153 164 174 168 149 137 163 243 236 274 296 292 285 279 279 284 287 279 272 287 292 293 309 329 341 341 341 351 3 355 350 355 353 346 345 347 348 355 3 4 1 4 11 16 17 19 27 37 45 57 68 72 83 96 103
149 155 158 156 153 153 153 149 143 141 145 147 142 137 130 120 124 154 164 160 153 157 169 170 168 231 279 273 273 281 282 281 282 281 284 291 292 286 282 288 305 321 320 318 328 331 332 351 358 348 346 349 348 349 352 355 356 359 4 7 7 10 18 23 26 33 46 55 62 69 74 88 102 108
121 113 108 108 111 115 122 125 122 126 135 139 131 130 133 133 146 175 183 174 150 164 216 226 228 271 285 282 282 286 283 278 279 281 283 286 292 297 298 303 314 315 308 310 322 322 317 325 349 342 338 346 352 348 346 351 355 354 355 1 4 7 21 31 33 36 45 53 58 67 84 105 119 124
110 109 107 104 96 91 94 98 101 108 117 115 109 122 154 166 167 176 178 125 104 191 262 286 300 280 269 277 285 281 274 277 289 295 289 280 280 285 288 291 297 301 302 308 313 311 311 319 328 328 329 338 345 342 340 345 354 355 354 356 360 3 11 23 31 38 46 53 58 65 77 107 126 135
107 111 114 112 103 98 98 97 95 96 97 97 101 120 151 165 164 97 38 41 42 16 296 295 295 286 292 317 324 309 293 295 298 290 277 271 274 280 284 291 298 299 295 296 298 299 306 312 316 319 320 321 331 340 335 320 322 347 357 359 0 5 8 14 32 49 53 56 63 73 84 102 120 130